{"data":{"norad_id":56378,"intl_designator":"2023-061E","name":"STARLINK-6191","alt_names":[],"object_type":"PAYLOAD","status":"ACTIVE","operator":null,"country":"US","launch_date":"2023-05-04","launch_site_code":"AFETR","launch_vehicle":null,"mission":null,"orbit_class":"UNKNOWN","rcs_meters":null,"size_class":null,"mass_kg":null,"dimensions":null,"purposes":["comms"],"wikipedia_slug":null,"has_3d_model":false,"image_url":null,"decayed_at":null,"tle_current":{"epoch":"2026-09-20T11:36:48.109824Z","epoch_age_seconds":113401,"freshness":"FRESH","line1":"1 56378U 23061E   26263.48389016 -.00000992  00000+0 -26529-4 0  9998","line2":"2 56378  43.0060 177.5740 0001302 256.4047 103.6660 15.27570839186542","mean_motion":15.27570839,"eccentricity":0.0001302,"inclination_deg":43.006,"raan_deg":177.574,"arg_perigee_deg":256.4047,"mean_anomaly_deg":103.666,"bstar":-2.6529e-5,"rev_number":18654,"period_min":94.267314041074,"perigee_km":482.18319750511,"apogee_km":483.96985750768,"semimajor_km":6861.2135275064,"source":"CELESTRAK","updated_at":"2026-09-21T09:00:33.430959Z"}}}